Showing default

FLOCK 4G 26, 62633

Orbit data source: Space-Track

FLOCK 4G 26, 62633 is a payload satellite owned by Planet (US) in SSO that was launched on Tue, 14 Jan 2025 UTC via an FALCON 9 launch vehicle from the Air Force Western Test Range (AFWTR). Payload-class satellites include a variety of spacecraft equipped with specific instruments for various scientific and technological missions. These include communications satellites like Starlink; space stations such as the ISS; scientific satellites like the Hubble; Earth observation satellites from companies like Planet Labs, Umbra, and HawkEye 360; GPS; miniature CubeSats for education and research; and military/defense satellites.

Loading next visibility...
Identifier
62633, 2025-009AA
Orbit
SSO
Last TLE update
13 hours ago
Origin
Manufacturer
Planet
Mission
Operational Commercial Imaging
Bus & Motor
CUBESAT 3U, Unknown motor
Mass
5.7 kg wet, 5.7 kg dry
Launch date (UTC)
2025-01-14 (6 months ago)
Launch vehicle
FALCON 9
Launch site
Air Force Western Test Range (AFWTR)
Object type
Payload
Rocket body
Debris
Shape & HBR
Box + 2 Pan, 0.3 m
Radar Cross Section
0.035 m², Medium (>0.1 m² and < 1m²)

Expand to show TLE details & history

TLE from 13 hours ago
0 FLOCK 4G 26
1 62633U 25009AA  25188.76904598  .00005895  00000-0  26801-3 0  9995
2 62633  97.4331 268.8573 0005243  83.7119 276.4714 15.21111546 26412
Epoch: 2025-07-07T18:27Z
TLE epoch observation values (Epoch: 2025-07-07T18:27:25.572Z)
Latitude
-0.00001°
Longitude
66.02712°
Altitude
505.173 km
Speed
7.612 km/s
True Right ascension
17h 55m 25s
True Declination
0° 00' 00"
Sunlit
Object was in full shadow at epoch
Visualization orbit readout
Latitude
54.43297°
Longitude
56.10224°
Altitude
508.272 km
Speed
7.617 km/s
Apparent Right ascension
11h 04m 56s
Apparent Declination
29° 51' 40"
Sunlit
Object is in daylight
Visualization observer readout
Local Sidereal Time
19:25:13
Azimuth
314.669° NW
Elevation
-3.595°
Doppler factor
1
Orbital elements
Apogee altitude
503.058 km
Perigee altitude
495.846 km
Semi-major axis
6,877.589 km
Eccentricity
0.00052
Inclination
97.4331°
RAAN
268.8573°
Arg. of periapsis
83.7119°
True anomaly
Unknown
Mean anomaly
276.4714°
Eccentric anomaly
Unknown
Mean motion
3.8053 °/min
Orbital period
94.6 mins
BSTAR
0.00026801
Loading maneuver chart data...
Loading SW <> Apogee altitude chart data...
Loading historical data...
Loading historical data...
Loading historical data...
Loading historical data...
Loading historical data...
Loading historical data...
Loading historical data...

FLOCK 4G 26 Visibility forecast

Observer location: undefined°, undefined°

Span
Click to sort rows by Start time (UTC) header in descending order
Start Az.
Max El. time (UTC)
Max El. Az.
Max El.
End time (UTC)
End Az.
5 mins2025-07-08 18:42:41.029Z342.799° N2025-07-08 18:44:41.029Z286.796° WNW31.177°2025-07-08 18:47:41.029Z221.269° SW
6 mins2025-07-09 05:19:41.029Z160.536° S2025-07-09 05:21:41.029Z133.833° SE42.711°2025-07-09 05:25:41.029Z351.093° N
|